AirNav   Air Wisconsin Up To $57,000 Bonus
 
 494 users online  

PAEE Eek Airport
Eek, Alaska, USA

GOING TO EEK?


FAA INFORMATION EFFECTIVE 12 SEPTEMBER 2019

Location

FAA Identifier: EEK
Lat/Long: 60-12-49.3000N 162-02-38.0000W
60-12.821667N 162-02.633333W
60.2136944,-162.0438889
(estimated)
Elevation: 26.5 ft. / 8.1 m (surveyed)
Variation: 15E (2005)
From city: 1 mile W of EEK, AK
Time zone: UTC -8 (UTC -9 during Standard Time)
Zip code: 99578

Airport Operations

Airport use: Open to the public
Activation date: 06/1974
Control tower: no
ARTCC: ANCHORAGE CENTER
FSS: KENAI FLIGHT SERVICE STATION [907-283-8469]
NOTAMs facility: ENA (NOTAM-D service available)
Attendance: UNATNDD
Wind indicator: lighted
Segmented circle: yes
Lights: ACTVT MIRL RY 17/35; REIL & PAPI RYS 17 & 35- CTAF.
Beacon: white-green (lighted land airport)
Operates sunset to sunrise.

Airport Communications

CTAF: 122.8
  • APCH/DEP SVC PRVDD BY ANCHORAGE ARTCC (ZAN) ON 125.2/372.0 (BETHEL RCAG).

Nearby radio navigation aids

VOR radial/distance  VOR name  Freq  Var
BETr177/34.9BETHEL VORTAC114.1014E

 
NDB name  Hdg/Dist  Freq  Var  ID
OSCARVILLE177/35.025111EOSE --- ... .

Airport Services

Airframe service: NONE
Powerplant service: NONE
Bottled oxygen: NONE
Bulk oxygen: NONE

Runway Information

Runway 17/35

Dimensions: 3242 x 60 ft. / 988 x 18 m
Surface: gravel, in good condition
Runway edge lights: medium intensity
GRASS AND BRUSH SURROUNDS RY LGTS.
RUNWAY 17  RUNWAY 35
Latitude: 60-13.084597N60-12.559118N
Longitude: 162-02.549567W162-02.718668W
Elevation: 25.2 ft.23.1 ft.
Traffic pattern: leftleft
Runway heading: 174 magnetic, 189 true354 magnetic, 009 true
Visual slope indicator: 4-light PAPI on left (3.00 degrees glide path)4-light PAPI on left (3.00 degrees glide path)
Runway end identifier lights: yesyes
Touchdown point: yes, no lightsyes, no lights
Obstructions: 3 ft. brush, 8 ft. from runway, 58 ft. right of centerline5 ft. brush, 22 ft. from runway, 60 ft. left and right of centerline

Airport Ownership and Management from official FAA records

Ownership: Publicly-owned
Owner: ALASKA DOT&PF CENTRAL REGION
PO BOX 196900
ANCHORAGE, AK 99519-6900
Phone (907) 269-0783
Manager: LAWRENCE DAVIS
BOX 505
BETHEL, AK 99559
Phone (907) 543-2498

Airport Operational Statistics

Aircraft operations: avg 38/week *
100% air taxi
* for 12-month period ending 31 December 2016

Additional Remarks

RY CONDITION NOT MONITORED; RECOMMEND VISUAL INSPECTION PRIOR TO USING.
WX CAMERA AVBL ON INTERNET AT HTTP://AVCAMS.FAA.GOV
BIRDS INVOF ARPT.
300 FT TOWER APRXLY 1.1 MILIES EAST OF ARPT.

Instrument Procedures

NOTE: All procedures below are presented as PDF files. If you need a reader for these files, you should download the free Adobe Reader.

NOT FOR NAVIGATION. Please procure official charts for flight.
FAA instrument procedures published for use from 12 September 2019 at 0901Z to 10 October 2019 at 0900Z.

 
IAPs - Instrument Approach Procedures
RNAV (GPS) RWY 17 **CHANGED**   download (161KB)
RNAV (GPS) RWY 35 **CHANGED**   download (162KB)

Other nearby airports with instrument procedures:

PAQH - Quinhagak Airport (28 nm S)
PANA - Napakiak Airport (29 nm N)
PAPK - Napaskiak Airport (30 nm N)
PABE - Bethel Airport (34 nm N)
PFKW - Kwethluk Airport (39 nm NE)
 
Loc | Ops | Rwys | IFR | FBO | Links
Com | Nav | Svcs | Stats | Notes

Crowley
 
Area around PAEE (Eek Airport)
 
Road maps at: MapQuest Bing Google
 
Aerial photo
WARNING: Photo may not be current or correct
Aerial photo of PAEE (Eek Airport)
Photo by Security Aviation
Photo taken 20-Dec-2017
looking south over Eek.

Do you have a better or more recent aerial photo of Eek Airport that you would like to share? If so, please send us your photo.

 
Sectional chart

 
Airport distance calculator
Flying to Eek Airport? Find the distance to fly.

From to PAEE

Sunrise and sunset
Times for 18-Sep-2019
 Local
(UTC-8)
 Zulu
(UTC)
Morning civil twilight07:4215:42
Sunrise08:2416:24
Sunset21:0005:00
Evening civil twilight21:4205:42

Current date and time
Zulu (UTC)  18-Sep-2019 10:43:37
Local (UTC-8)  18-Sep-2019 02:43:37
 
METAR
PAQH 
28nm S 
181017Z AUTO 16005KT 10SM BKN008 OVC034 10/09 A2917 RMK AO2 CIG 006V014
PANA 
29nm N 
181019Z AUTO 04010KT 4SM BR OVC005 07/07 RMK AO2 CIG 004V008 PWINO $
PABE 
35nm N 
180953Z 05012G19KT 3SM -RA BR OVC005 07/07 A2916 RMK AO2 SLP877 P0003 T00720067
PFKW 
39nm NE 
180956Z AUTO 04012KT 8SM -RA BKN005 OVC013 07/07 A2915 RMK AO2 SLP870 P0002 T00720067
PPIT 
43nm N 
180956Z AUTO 06020G29KT 10SM -RA OVC006 06/06 A2918 RMK AO2 PK WND 05029/0948 SLP880 P0003 T00610061 TSNO
TAF
PABE 
35nm N 
180534Z 1806/1906 04011KT 3SM -RA BR OVC005 TEMPO 1806/1810 6SM -RA FM181800 36009KT 6SM BR VCSH BKN005 OVC015 FM190300 36012KT P6SM SCT015 OVC030
NOTAMs
Click for the latest NOTAMs
NOTAMs are issued by the DoD/FAA and will open in a separate window not controlled by AirNav.

 

 
 

Would you like to see your business listed on this page?

 If your business provides an interesting product or service to pilots, flight crews, aircraft, or users of the Eek Airport, you should consider listing it here.  To start the listing process, click on the button below
 
Add a business
 

Other Pages about Eek Airport

Update a link
 
Copyright © AirNav, LLC. All rights reserved. Privacy Policy  Contact